Showing default

COSMOS 2268, 22999

Orbit data source: Space-Track

COSMOS 2268, 22999 is a payload satellite owned by VKS (CIS) in LEO that was launched on Sat, 12 Feb 1994 UTC via a TSIKLON-3 launch vehicle from the Plesetsk Missile And Space Complex (PKMTR). Payload-class satellites include a variety of spacecraft equipped with specific instruments for various scientific and technological missions. These include communications satellites like Starlink; space stations such as the ISS; scientific satellites like the Hubble; Earth observation satellites from companies like Planet Labs, Umbra, and HawkEye 360; GPS; miniature CubeSats for education and research; and military/defense satellites.

Loading next visibility...
Identifier
22999, 1994-011A
Orbit
LEO
Country
Flag of CISCIS
Related business
Manufacturer
NPO PM
Mission
Defense Communications
Bus & Motor
STRELA-3, Unknown motor
Mass
225 kg wet, 225 kg dry
Launch date (UTC)
1994-02-12 (32 years ago)
Launch vehicle
TSIKLON-3
Launch site
Plesetsk Missile And Space Complex (PKMTR)
Object type
Payload
Rocket body
Debris
Shape & HBR
Cyl, 0.8 m
Radar Cross Section
1.257 m², Medium (>0.1 m² and < 1m²)

Expand to show TLE details & history
Last TLE update: 23 hours ago

TLE from 23 hours ago
0 COSMOS 2268
1 22999U 94011A   25257.49193101  .00000023  00000-0  69461-4 0  9990
2 22999  82.5802 156.1330 0011056 102.0260  70.7806 12.61218292454006
Epoch: 2025-09-14T11:48Z
TLE epoch observation values (Epoch: 2025-09-14T11:48:22.839Z)
Latitude
6.9457°
Longitude
164.42313°
Altitude
1,417.189 km
Speed
7.154 km/s
True Right ascension
22h 20m 54s
True Declination
6° 54' 29"
Sunlit
Object was in full shadow at epoch
Visualization orbit readout
Latitude
Unknown
Longitude
Unknown
Altitude
Unknown
Speed
Unknown
Apparent Right ascension
Unknown
Apparent Declination
Unknown
Sunlit
N/A
Visualization observer readout
Local Sidereal Time
03:53:26
Azimuth
Unknown
Elevation
Unknown
Doppler factor
Unknown
Orbital elements
Apogee altitude
1,423.858 km
Perigee altitude
1,406.626 km
Semi-major axis
7,793.379 km
Eccentricity
0.00111
Inclination
82.5802°
RAAN
156.133°
Arg. of periapsis
102.026°
True anomaly
70.90029°
Mean anomaly
70.7806°
Eccentric anomaly
70.84044°
Mean motion
3.15467 °/min
Orbital period
114.12 mins
BSTAR
0.000069461
Loading maneuver chart data...
Computing Atmospheric mass density...
Loading historical data...
Loading historical data...
Loading historical data...
Loading historical data...
Loading historical data...
Loading historical data...
Loading historical data...

Documentation

Showing up to 5 results
|